Regional Weather Roundup
Issued by NWS Green Bay, WI

Home | Current Version | Previous Version | Graphics & Text | Print | Product List | Glossary Off
Versions: 1 2 3 4 5 6 7 8 9 10 11 12 13 14 15 16 17 18 19 20 21 22 23 24 25 26 27 28 29 30 31 32 33 34 35 36 37 38 39 40 41 42 43 44 45 46 47 48 49 50

000
ASUS43 KGRB 231310
RWRGRB

NORTH-CENTRAL AND NORTHEAST WISCONSIN REGIONAL WEATHER ROUNDUP
NATIONAL WEATHER SERVICE GREEN BAY WI
800 AM CDT WED APR 23 2014

WIZ005-009-010>012-018-019-231400-
NORTH CENTRAL WISCONSIN

CITY           SKY/WX    TMP DP  RH WIND       PRES   REMARKS
IRONWOOD       MOSUNNY   34  25  69 CALM      30.13S
MANITOWISH WTR PTSUNNY   32  29  89 CALM      30.15F
ARBOR VITAE    PTSUNNY   33  23  67 CALM      30.15S
EAGLE RIVER    MOSUNNY   32  29  88 CALM      30.15S
LAND O LAKES   MOSUNNY   31  28  86 CALM      30.17R
RHINELANDER    PTSUNNY   32  27  81 CALM      30.17R
PHILLIPS       CLOUDY    33  27  78 CALM      30.14S
ANTIGO         MOSUNNY   32  30  91 NE5       30.17R
TOMAHAWK       PTSUNNY   31  29  92 CALM      30.16S
MERRILL        PTSUNNY   31  28  91 E3        30.15F
$$

WIZ013-073-231400-
NORTHEAST WISCONSIN

CITY           SKY/WX    TMP DP  RH WIND       PRES   REMARKS
IRON MOUNTAIN  SUNNY     33  26  75 NW3       30.16S
MARINETTE      SUNNY     36  27  69 N7        30.19R
OCONTO         SUNNY     36  28  72 N5        30.19R
$$

WIZ017-030-035>037-045-231400-
CENTRAL WISCONSIN

CITY           SKY/WX    TMP DP  RH WIND       PRES   REMARKS
MEDFORD        PTSUNNY   36  26  69 E6        30.14S
WAUSAU         MOSUNNY   34  29  82 E3        30.15R
MOSINEE        SUNNY     36  30  80 E7        30.16S
MARSHFIELD     PTSUNNY   36  28  73 SE7       30.15R
WISC RAPIDS    PTSUNNY   37  27  67 E5        30.18R
STEVENS POINT  MOSUNNY   35  26  69 E8        30.17S
WAUPACA        MOSUNNY   39  28  65 NE5       30.18S
SHAWANO        MOSUNNY   36  29  76 CALM      30.20R
CLINTONVILLE   MOSUNNY   34  30  86 CALM      30.19R
$$

WIZ038-039-048-051-231400-
FOX VALLEY

CITY           SKY/WX    TMP DP  RH WIND       PRES   REMARKS
NWS GREEN BAY  MOSUNNY   37  28  70 NW5       30.20R
APPLETON       MOSUNNY   34  27  75 NE6       30.19R
OSHKOSH        MOSUNNY   38  27  64 E8        30.17R
FOND DU LAC    SUNNY     38  27  64 NE6       30.17R
$$

WIZ022-050-052-231400-
EAST CENTRAL WISCONSIN

CITY           SKY/WX    TMP DP  RH WIND       PRES   REMARKS
STURGEON BAY   SUNNY     34  27  75 N12       30.19R
MANITOWOC      MOSUNNY   37  28  70 N7        30.19R
SHEBOYGAN      MOSUNNY   37  28  70 N6        30.18R
$$

LMZ563-521-522-541>543-231400-
LAKESHORE

STATION/POSITION TIME  TEMP    WIND        PRES    VSBY  WAVE
                       AIR SEA DIR/SP/G                  HT/PER
                 (UTC) (F)     (DEG/KT/KT) (MB)    (MI)  (FT/S)
SHEBOYGAN LKSHOR 1300   38     360/ 10/ 12 1022.8R
KEWAUNEE LKSHORE 1300   36     350/  5/  8 1022.4R
TWO RIVERS CG    1200   36                   N/A       6   1
NORTHPORT PIER   1300   32     300/  6/  9 1022.4S
SISTER BAY LKSHO 1300   37        CALM       N/A
STURGEON BAY CG  1200   33     310/  8     1020.9      6   1
MENOMINEE LKSHOR 1300   33     320/  8/  9 1022.8S
$$



USA.gov is the U.S. government's official web portal to all federal, state and local government web resources and services.